Marfa, TX

11:54 PM CDT on March 29, 2017 (GMT -0500)
Marfa Municipal

Weather History for KMRF - May, 2014

Change the Weather History Date:

Thursday, May 8, 2014

  Actual Average Record
Temperature  
Mean Temperature 61 °F -  
Max Temperature 78 °F 80 °F 89 °F (2000)
Min Temperature 44 °F 48 °F 37 °F (2005)
Degree Days  
Heating Degree Days 4    
Growing Degree Days 11 (Base 50)    
Moisture  
Dew Point 16 °F    
Average Humidity 15    
Maximum Humidity 22    
Minimum Humidity 11    
Precipitation  
Precipitation 0.00 in - - ()
Sea Level Pressure  
Sea Level Pressure 30.00 in    
Wind  
Wind Speed 10 mph (WNW)    
Max Wind Speed 23 mph    
Max Gust Speed 30 mph    
Visibility 10 miles    
Events      
Averages and records for this station are not official NWS values.
T = Trace of Precipitation, MM = Missing Value Source: NWS Daily Summary

Daily Weather History Graph

Daily Weather History Graph

Search for Another Location

Airport or City:

Trip Planner

Search our weather history database for the weather conditions in past years. The results will help you decide how hot, cold, wet, or windy it might be!

Date:

Astronomy

May. 08, 2014 Rise Set
Actual Time 7:06 AM CDT 8:38 PM CDT
Civil Twilight 6:40 AM CDT 9:04 PM CDT
Nautical Twilight 6:09 AM CDT 9:35 PM CDT
Astronomical Twilight 5:37 AM CDT 10:08 PM CDT
Moon 3:06 PM CDT (5/8) 3:12 AM CDT (5/8)
Length of Visible Light 14h 23m
Length of Day
13h 31m
Waxing Gibbous, 65% of the Moon is Illuminated
May 8
Waxing Gibbous
May 14
Full
May 21
Last Quarter
May 28
New
Jun 5
First Quarter

Hourly Weather History & Observations

Time (CDT) Temp. Windchill Dew Point Humidity Pressure Visibility Wind Dir Wind Speed Gust Speed Precip Events Conditions
12:15 AM 66.2 °F - 15.8 °F 14% 29.93 in 8.0 mi NW 11.5 mph - N/A   Overcast
12:35 AM 66.2 °F - 15.8 °F 14% 29.93 in 9.0 mi WNW 11.5 mph - N/A   Overcast
12:55 AM 64.4 °F - 15.8 °F 15% 29.93 in 10.0 mi WNW 12.7 mph 16.1 mph N/A   Scattered Clouds
1:15 AM 64.4 °F - 14.0 °F 14% 29.93 in 10.0 mi WNW 9.2 mph - N/A   Clear
1:35 AM 64.4 °F - 14.0 °F 14% 29.93 in 10.0 mi NW 10.4 mph 17.3 mph N/A   Clear
1:55 AM 62.6 °F - 12.2 °F 14% 29.93 in 10.0 mi WNW 11.5 mph - N/A   Clear
2:15 AM 62.6 °F - 12.2 °F 14% 29.94 in 10.0 mi WNW 12.7 mph - N/A   Clear
2:35 AM 62.6 °F - 10.4 °F 13% 29.94 in 10.0 mi NW 10.4 mph - N/A   Clear
2:55 AM 60.8 °F - 10.4 °F 14% 29.94 in 10.0 mi NW 6.9 mph - N/A   Clear
3:15 AM 57.2 °F - 8.6 °F 14% 29.95 in 10.0 mi NW 8.1 mph - N/A   Clear
3:35 AM 59.0 °F - 8.6 °F 14% 29.95 in 10.0 mi NW 9.2 mph - N/A   Clear
3:55 AM 55.4 °F - 6.8 °F 14% 29.95 in 10.0 mi NW 5.8 mph - N/A   Clear
4:15 AM 48.2 °F - 5.0 °F 17% 29.96 in 10.0 mi NNE 8.1 mph - N/A   Clear
4:35 AM 51.8 °F - 8.6 °F 18% 29.96 in 10.0 mi North 6.9 mph - N/A   Clear
4:55 AM 55.4 °F - 10.4 °F 17% 29.95 in 10.0 mi NW 6.9 mph - N/A   Clear
5:15 AM 48.2 °F - 6.8 °F 19% 29.97 in 10.0 mi NNE 3.5 mph - N/A   Clear
5:35 AM 48.2 °F - 8.6 °F 20% 29.97 in 10.0 mi West 4.6 mph - N/A   Clear
5:55 AM 53.6 °F - 10.4 °F 18% 29.97 in 10.0 mi WNW 9.2 mph - N/A   Clear
6:15 AM 46.4 °F - 6.8 °F 20% 29.98 in 10.0 mi Calm Calm - N/A   Clear
6:35 AM 48.2 °F - 6.8 °F 19% 29.99 in 10.0 mi Calm Calm - N/A   Clear
6:55 AM 48.2 °F - 6.8 °F 19% 30.00 in 10.0 mi NW 4.6 mph - N/A   Clear
7:15 AM 44.6 °F 42.2 °F 6.8 °F 21% 30.01 in 10.0 mi NW 4.6 mph - N/A   Clear
7:35 AM 44.6 °F 42.2 °F 6.8 °F 21% 30.01 in 10.0 mi NW 4.6 mph - N/A   Clear
7:55 AM 48.2 °F - 10.4 °F 22% 30.02 in 10.0 mi WNW 6.9 mph - N/A   Clear
8:15 AM 53.6 °F - 10.4 °F 18% 30.03 in 10.0 mi WNW 4.6 mph - N/A   Clear
8:35 AM 59.0 °F - 12.2 °F 16% 30.03 in 10.0 mi WNW 5.8 mph - N/A   Clear
8:55 AM 62.6 °F - 14.0 °F 15% 30.04 in 10.0 mi NW 4.6 mph - N/A   Clear
9:15 AM 64.4 °F - 15.8 °F 15% 30.04 in 10.0 mi West 9.2 mph - N/A   Clear
9:35 AM 66.2 °F - 15.8 °F 14% 30.04 in 10.0 mi WNW 10.4 mph 21.9 mph N/A   Clear
9:55 AM 66.2 °F - 17.6 °F 15% 30.05 in 10.0 mi WNW 13.8 mph 17.3 mph N/A   Clear
10:15 AM 68.0 °F - 17.6 °F 15% 30.06 in 10.0 mi NW 10.4 mph - N/A   Clear
10:35 AM 68.0 °F - 19.4 °F 16% 30.06 in 10.0 mi West 9.2 mph 19.6 mph N/A   Clear
10:55 AM 69.8 °F - 19.4 °F 15% 30.06 in 10.0 mi WNW 11.5 mph - N/A   Clear
11:15 AM 69.8 °F - 21.2 °F 16% 30.06 in 10.0 mi WSW 12.7 mph - N/A   Clear
11:35 AM 69.8 °F - 21.2 °F 16% 30.06 in 10.0 mi WSW 11.5 mph 17.3 mph N/A   Clear
12:15 PM 71.6 °F - 21.2 °F 15% 30.05 in 10.0 mi SW 8.1 mph 18.4 mph N/A   Clear
12:35 PM 73.4 °F - 21.2 °F 14% 30.04 in 10.0 mi WSW 10.4 mph 20.7 mph N/A   Clear
12:55 PM 73.4 °F - 23.0 °F 15% 30.04 in 10.0 mi WSW 10.4 mph 21.9 mph N/A   Clear
1:15 PM 75.2 °F - 19.4 °F 12% 30.04 in 10.0 mi WSW 16.1 mph 28.8 mph N/A   Clear
1:35 PM 75.2 °F - 19.4 °F 12% 30.03 in 10.0 mi WSW 20.7 mph 25.3 mph N/A   Clear
1:55 PM 75.2 °F - 19.4 °F 12% 30.03 in 10.0 mi WSW 19.6 mph 23.0 mph N/A   Clear
2:15 PM 75.2 °F - 17.6 °F 11% 30.03 in 10.0 mi WSW 19.6 mph 27.6 mph N/A   Clear
2:35 PM 75.2 °F - 19.4 °F 12% 30.02 in 10.0 mi SW 18.4 mph 24.2 mph N/A   Clear
2:55 PM 77.0 °F - 19.4 °F 12% 30.03 in 10.0 mi West 11.5 mph 28.8 mph N/A   Clear
3:15 PM 78.8 °F - 19.4 °F 11% 30.02 in 10.0 mi West 10.4 mph 23.0 mph N/A   Clear
3:35 PM 77.0 °F - 19.4 °F 12% 30.01 in 10.0 mi WSW 15.0 mph 24.2 mph N/A   Clear
3:55 PM 78.8 °F - 19.4 °F 11% 30.00 in 10.0 mi WSW 23.0 mph 29.9 mph N/A   Clear
4:15 PM 78.8 °F - 19.4 °F 11% 30.00 in 10.0 mi WSW 15.0 mph 25.3 mph N/A   Clear
4:35 PM 78.8 °F - 19.4 °F 11% 29.99 in 10.0 mi WSW 12.7 mph 28.8 mph N/A   Clear
4:55 PM 78.8 °F - 19.4 °F 11% 29.99 in 10.0 mi West 13.8 mph 27.6 mph N/A   Clear
5:15 PM 78.8 °F - 19.4 °F 11% 29.99 in 10.0 mi WSW 13.8 mph 24.2 mph N/A   Clear
5:35 PM 78.8 °F - 19.4 °F 11% 29.99 in 10.0 mi West 13.8 mph 23.0 mph N/A   Clear
5:55 PM 78.8 °F - 19.4 °F 11% 29.99 in 10.0 mi West 12.7 mph 21.9 mph N/A   Clear
6:15 PM 78.8 °F - 19.4 °F 11% 29.98 in 10.0 mi West 9.2 mph 19.6 mph N/A   Clear
6:35 PM 78.8 °F - 19.4 °F 11% 29.98 in 10.0 mi West 8.1 mph 19.6 mph N/A   Clear
6:55 PM 78.8 °F - 19.4 °F 11% 29.98 in 10.0 mi WSW 13.8 mph 20.7 mph N/A   Clear
7:15 PM 77.0 °F - 19.4 °F 12% 29.98 in 10.0 mi West 11.5 mph 19.6 mph N/A   Clear
7:35 PM 77.0 °F - 21.2 °F 12% 29.98 in 10.0 mi West 11.5 mph 18.4 mph N/A   Clear
7:55 PM 75.2 °F - 21.2 °F 13% 29.98 in 10.0 mi West 6.9 mph - N/A   Clear
8:15 PM 75.2 °F - 21.2 °F 13% 29.98 in 10.0 mi West 6.9 mph - N/A   Clear
8:35 PM 71.6 °F - 19.4 °F 14% 29.99 in 10.0 mi WNW 5.8 mph - N/A   Clear
8:55 PM 69.8 °F - 17.6 °F 14% 30.00 in 10.0 mi NNW 6.9 mph - N/A   Clear
9:15 PM 62.6 °F - 15.8 °F 16% 30.00 in 10.0 mi North 9.2 mph - N/A   Clear
9:35 PM 62.6 °F - 15.8 °F 16% 30.01 in 10.0 mi North 9.2 mph - N/A   Clear
9:55 PM 62.6 °F - 17.6 °F 18% 30.02 in 10.0 mi NNW 9.2 mph - N/A   Clear
10:15 PM 60.8 °F - 17.6 °F 19% 30.03 in 10.0 mi NNW 9.2 mph - N/A   Clear
10:35 PM 60.8 °F - 17.6 °F 19% 30.04 in 10.0 mi NNE 6.9 mph - N/A   Clear
10:55 PM 57.2 °F - 15.8 °F 20% 30.05 in 10.0 mi North 12.7 mph - N/A   Clear
11:15 PM 59.0 °F - 15.8 °F 19% 30.06 in 10.0 mi North 6.9 mph - N/A   Clear
11:35 PM 55.4 °F - 15.8 °F 21% 30.06 in 10.0 mi Calm Calm - N/A   Clear
11:55 PM 55.4 °F - 15.8 °F 21% 30.06 in 10.0 mi NNW 4.6 mph - N/A   Clear